Weather History for KCHO - December, 2013

Change the Weather History Date:

Monday, December 9, 2013

  Actual Average Record
Temperature  
Mean Temperature 35 °F 39 °F  
Max Temperature 39 °F 48 °F 76 °F (1980)
Min Temperature 31 °F 30 °F 11 °F (1917)
Degree Days  
Heating Degree Days 30 26  
Month to date heating degree days 185 222  
Since 1 July heating degree days 1128 1113  
Cooling Degree Days 0 0  
Month to date cooling degree days 18 0  
Year to date cooling degree days 1164 1035  
Moisture  
Dew Point 33 °F    
Average Humidity 93    
Maximum Humidity 100    
Minimum Humidity 85    
Precipitation  
Precipitation 0.23 in 0.12 in 1.04 in (2009)
Month to date precipitation 0.89 1.09  
Year to date precipitation 41.45 40.65  
Sea Level Pressure  
Sea Level Pressure 30.12 in    
Wind  
Wind Speed 4 mph (South)    
Max Wind Speed 12 mph    
Max Gust Speed 13 mph    
Visibility 5 miles    
Events Fog , Rain    
T = Trace of Precipitation, MM = Missing Value Source: NWS Daily Summary

Daily Weather History Graph

Daily Weather History Graph

Search for Another Location

Airport or City:

Trip Planner

Search our weather history database for the weather conditions in past years. The results will help you decide how hot, cold, wet, or windy it might be!

Date:

Astronomy

Dec. 09, 2013 Rise Set
Actual Time 7:18 AM EST 4:53 PM EST
Civil Twilight 6:49 AM EST 5:23 PM EST
Nautical Twilight 6:16 AM EST 5:56 PM EST
Astronomical Twilight 5:44 AM EST 6:28 PM EST
Moon 12:16 PM EST (12/9) No Moon Set
Length of Visible Light 10h 33m
Length of Day
9h 35m
Waxing Crescent, 51% of the Moon is Illuminated
Dec 9
Waxing Crescent
Dec 17
Full
Dec 25
Last Quarter
Jan 1
New
Jan 7
First Quarter

Hourly Weather History & Observations

Time (EST) Temp. Windchill Dew Point Humidity Pressure Visibility Wind Dir Wind Speed Gust Speed Precip Events Conditions
12:00 AM 30.9 °F - 30.9 °F 100% 30.28 in 3.0 mi Calm Calm - 0.02 in   Overcast
12:53 AM 32.0 °F - 30.9 °F 96% 30.25 in 7.0 mi Calm Calm - 0.05 in   Overcast
1:34 AM 32.0 °F 27.5 °F 30.9 °F 96% 30.20 in 5.0 mi SSE 4.6 mph - 0.04 in Rain Light Freezing Rain
1:53 AM 32.0 °F - 32.0 °F 100% 30.22 in 7.0 mi Calm Calm - 0.05 in Rain Light Freezing Rain
2:07 AM 32.0 °F - 30.9 °F 96% 30.19 in 10.0 mi Calm Calm - 0.00 in   Overcast
2:53 AM 32.0 °F 28.7 °F 30.9 °F 96% 30.20 in 10.0 mi SSW 3.5 mph - 0.00 in   Overcast
3:12 AM 32.0 °F - 30.9 °F 96% 30.19 in 10.0 mi Calm Calm - N/A   Overcast
3:35 AM 32.0 °F 25.6 °F 30.9 °F 96% 30.19 in 5.0 mi South 6.9 mph - 0.01 in Rain Light Freezing Rain
3:38 AM 32.0 °F 26.4 °F 30.9 °F 96% 30.18 in 4.0 mi South 5.8 mph - 0.02 in Rain Light Freezing Rain
3:53 AM 32.0 °F - 30.9 °F 96% 30.19 in 3.0 mi Calm Calm - 0.06 in Rain Light Freezing Rain
4:02 AM 32.0 °F 27.5 °F 30.9 °F 96% 30.16 in 3.0 mi South 4.6 mph - 0.01 in Rain Light Freezing Rain
4:11 AM 32.0 °F 27.5 °F 30.9 °F 96% 30.16 in 4.0 mi SSW 4.6 mph - 0.03 in Rain Light Freezing Rain
4:53 AM 32.0 °F 27.5 °F 30.9 °F 96% 30.15 in 10.0 mi South 4.6 mph - 0.04 in Rain Light Freezing Rain
5:05 AM 32.0 °F 26.4 °F 30.9 °F 96% 30.14 in 10.0 mi SSW 5.8 mph - 0.00 in   Overcast
5:30 AM 32.0 °F 27.5 °F 30.9 °F 96% 30.14 in 8.0 mi South 4.6 mph - 0.00 in Rain Light Freezing Rain
5:53 AM 32.0 °F 26.4 °F 30.9 °F 96% 30.14 in 10.0 mi SSE 5.8 mph - 0.00 in   Overcast
6:24 AM 32.0 °F 26.4 °F 30.9 °F 96% 30.13 in 9.0 mi South 5.8 mph - 0.00 in Rain Light Freezing Rain
6:53 AM 32.0 °F 25.6 °F 30.9 °F 96% 30.14 in 9.0 mi South 6.9 mph - 0.01 in   Overcast
7:07 AM 32.0 °F 25.6 °F 30.9 °F 96% 30.12 in 4.0 mi South 6.9 mph - 0.01 in Rain Light Freezing Rain
7:12 AM 32.0 °F 25.6 °F 30.9 °F 96% 30.12 in 2.5 mi South 6.9 mph - 0.02 in Rain Light Freezing Rain
7:20 AM 32.0 °F 25.6 °F 32.0 °F 100% 30.12 in 3.0 mi South 6.9 mph - 0.04 in Rain Light Freezing Rain
7:27 AM 32.0 °F 26.4 °F 30.9 °F 96% 30.11 in 5.0 mi South 5.8 mph - 0.04 in   Overcast
7:53 AM 32.0 °F 24.8 °F 30.9 °F 96% 30.13 in 7.0 mi South 8.1 mph - 0.04 in   Overcast
8:53 AM 32.0 °F 26.4 °F 32.0 °F 100% 30.12 in 6.0 mi SSW 5.8 mph - N/A   Overcast
9:53 AM 33.1 °F 26.9 °F 30.9 °F 92% 30.11 in 9.0 mi South 6.9 mph - N/A   Overcast
10:53 AM 33.1 °F 26.1 °F 30.9 °F 92% 30.09 in 6.0 mi South 8.1 mph - N/A   Overcast
11:53 AM 35.1 °F - 33.1 °F 92% 30.07 in 10.0 mi North - - 0.00 in   Mostly Cloudy
12:53 PM 36.0 °F 32.1 °F 34.0 °F 93% 30.05 in 10.0 mi SW 4.6 mph - N/A   Overcast
1:53 PM 37.0 °F 33.3 °F 35.1 °F 93% 30.02 in 8.0 mi SSE 4.6 mph - N/A   Overcast
2:39 PM 37.9 °F 32.1 °F 36.0 °F 93% 30.02 in 10.0 mi SSW 8.1 mph - N/A   Overcast
2:53 PM 39.0 °F 34.8 °F 36.0 °F 89% 30.03 in 3.0 mi SW 5.8 mph - N/A   Overcast
3:02 PM 37.9 °F 33.5 °F 36.0 °F 93% 30.02 in 2.5 mi South 5.8 mph - N/A   Overcast
3:25 PM 37.9 °F 33.5 °F 36.0 °F 93% 30.02 in 2.5 mi South 5.8 mph - N/A   Overcast
3:53 PM 37.9 °F - 36.0 °F 93% 30.03 in 2.5 mi Calm Calm - N/A   Overcast
4:53 PM 37.9 °F 35.5 °F 36.0 °F 93% 30.04 in 2.0 mi South 3.5 mph - N/A   Overcast
5:13 PM 37.9 °F 34.4 °F 37.0 °F 97% 30.03 in 0.8 mi South 4.6 mph - N/A   Mist
5:53 PM 37.0 °F 34.5 °F 37.0 °F 100% 30.05 in 0.5 mi South 3.5 mph - N/A Fog Fog
6:53 PM 37.0 °F - 37.0 °F 100% 30.07 in 0.2 mi Calm Calm - N/A Fog Fog
7:53 PM 37.0 °F - 36.0 °F 96% 30.09 in 0.2 mi Calm Calm - N/A Fog Fog
8:53 PM 37.0 °F 33.3 °F 36.0 °F 96% 30.09 in 0.2 mi NNE 4.6 mph - N/A Fog Fog
9:53 PM 36.0 °F 33.3 °F 35.1 °F 97% 30.09 in 0.2 mi NE 3.5 mph - N/A Fog Fog
10:53 PM 35.1 °F 32.2 °F 34.0 °F 96% 30.08 in 0.2 mi East 3.5 mph - N/A Fog Fog
11:53 PM 34.0 °F 31.0 °F 33.1 °F 96% 30.07 in 0.2 mi North 3.5 mph - N/A Fog Fog